TimePDT,TemperatureF,Dew PointF,Humidity,Sea Level PressureIn,VisibilityMPH,Wind Direction,Wind SpeedMPH,Gust SpeedMPH,PrecipitationIn,Events,Conditions,WindDirDegrees,DateUTC
12:56 AM,46.9,28.0,48,29.63,10.0,NNE,4.6,-,N/A,,Clear,20,2012-10-22 07:56:00
1:56 AM,46.4,28.4,50,29.72,10.0,Calm,Calm,-,N/A,,Clear,0,2012-10-22 08:56:00
2:56 AM,46.0,28.9,51,29.61,10.0,West,3.5,-,N/A,,Clear,260,2012-10-22 09:56:00
3:56 AM,42.8,28.4,57,29.67,10.0,North,5.8,-,N/A,,Scattered Clouds,350,2012-10-22 10:56:00
4:56 AM,48.2,28.4,46,29.73,10.0,North,10.4,-,N/A,,Overcast,10,2012-10-22 11:56:00
5:56 AM,48.2,32.0,54,29.70,10.0,West,4.6,-,N/A,,Clear,280,2012-10-22 12:56:00
7:56 AM,50.0,34.0,54,29.64,10.0,North,6.9,-,0.00,Rain,Light Rain,360,2012-10-22 14:56:00
8:56 AM,55.0,33.1,43,29.65,10.0,SSE,11.5,19.6,0.00,,Scattered Clouds,160,2012-10-22 15:56:00
9:56 AM,59.0,34.0,39,29.68,10.0,WSW,9.2,-,N/A,,Mostly Cloudy,250,2012-10-22 16:56:00
10:56 AM,60.1,35.1,39,29.67,10.0,WNW,9.2,-,N/A,,Partly Cloudy,300,2012-10-22 17:56:00
11:56 AM,60.1,35.1,39,29.69,10.0,WNW,11.5,-,N/A,,Mostly Cloudy,300,2012-10-22 18:56:00
12:56 PM,63.0,34.0,34,29.66,10.0,Variable,3.5,-,N/A,,Clear,0,2012-10-22 19:56:00
1:56 PM,60.1,35.1,39,29.66,10.0,WNW,11.5,-,N/A,,Mostly Cloudy,300,2012-10-22 20:56:00
2:56 PM,59.0,37.9,46,29.67,10.0,North,8.1,-,N/A,,Clear,350,2012-10-22 21:56:00
3:56 PM,60.8,35.6,39,29.75,10.0,Calm,Calm,-,N/A,,Clear,0,2012-10-22 22:56:00
4:56 PM,57.9,37.0,46,29.66,10.0,SW,3.5,-,N/A,,Clear,230,2012-10-22 23:56:00
5:56 PM,52.0,28.0,40,29.67,10.0,NE,10.4,-,N/A,,Clear,50,2012-10-23 00:56:00
6:56 PM,54.0,19.9,26,29.67,10.0,NE,5.8,-,N/A,,Clear,50,2012-10-23 01:56:00
7:56 PM,53.1,19.9,27,29.67,10.0,ENE,3.5,-,N/A,,Clear,60,2012-10-23 02:56:00
8:56 PM,48.9,19.9,32,29.70,10.0,NNW,8.1,-,N/A,,Clear,330,2012-10-23 03:56:00
9:56 PM,46.9,14.0,27,29.70,10.0,North,8.1,-,N/A,,Clear,360,2012-10-23 04:56:00
10:56 PM,45.0,14.0,29,29.72,10.0,NE,9.2,-,N/A,,Clear,50,2012-10-23 05:56:00
11:56 PM,48.9,10.9,22,29.68,10.0,ENE,13.8,-,N/A,,Clear,60,2012-10-23 06:56:00